FW9704 Weather Reports


time (UTC)temp
C
wind
direction
speed
KPH
gust
KPH
rain 1hr
cm
rain 24hr
cm
rain mn
cm
humidity
%
barometer
mb
20260906114600 23 139 0.0 6.4 0.00 0.00 0.00 95 990.7
20260906113100 23 270 4.8 11.3 0.00 0.00 0.00 94 990.7
20260906111618 23 233 0.0 4.8 0.00 0.00 0.00 93 991.2
20260906110100 23 326 0.0 8.0 0.00 0.00 0.00 92 991.3
20260906110002 23 301 0.0 8.0 0.00 0.00 0.00 92 991.3
20260906104601 23 331 1.6 6.4 0.00 0.00 0.00 92 991.6
20260906103101 23 10 0.0 4.8 0.00 0.00 0.00 92 991.4
20260906101601 23 74 3.2 12.9 0.00 0.00 0.00 92 991.0
20260906100100 23 21 4.8 14.5 0.00 0.00 0.00 92 991.2
20260906100002 23 91 3.2 11.3 0.00 0.00 0.00 92 991.2
20260906094700 23 50 3.2 14.5 0.00 0.00 0.00 92 991.3
20260906093103 23 68 3.2 12.9 0.00 0.00 0.00 92 991.0
20260906091600 24 141 1.6 6.4 0.00 0.00 0.00 91 990.3
20260906090002 24 109 3.2 11.3 0.00 0.00 0.00 91 990.8
20260906080107 24 122 3.2 14.5 0.00 0.00 0.00 97 990.1
20260906074502 24 162 0.0 17.7 0.00 0.00 0.00 98 989.7
20260906073002 24 79 0.0 0.0 0.00 0.00 0.00 98 989.7
20260906071502 24 79 0.0 0.0 0.00 0.00 0.00 98 989.9
20260906070004 24 79 0.0 0.0 0.00 0.00 0.00 97 989.9
20260906064559 25 139 0.0 0.0 0.00 0.00 0.00 97 989.7
20260906063059 24 138 1.6 6.4 0.00 0.00 0.00 97 989.8
20260906061603 25 80 0.0 0.0 0.00 0.00 0.00 97 989.5
20260906060059 25 80 0.0 0.0 0.00 0.00 0.00 96 989.4
20260906060003 25 80 0.0 0.0 0.00 0.00 0.00 96 989.4
20260906054501 25 80 0.0 0.0 0.00 0.00 0.00 96 989.5
20260906053001 25 80 0.0 0.0 0.00 0.00 0.00 96 989.6
20260906051501 25 80 0.0 0.0 0.00 0.00 0.00 96 989.9
20260906050006 25 80 0.0 0.0 0.00 0.00 0.00 95 990.0
20260906044501 25 80 0.0 0.0 0.00 0.00 0.00 95 990.1
20260906043005 25 80 0.0 0.0 0.00 0.00 0.00 95 990.2
20260906041501 25 80 0.0 6.4 0.00 0.00 0.00 96 990.1
20260906040004 25 75 6.4 16.1 0.00 0.00 0.00 94 990.2
20260906034501 26 131 0.0 0.0 0.00 0.00 0.00 93 990.0
20260906033003 26 130 0.0 0.0 0.00 0.00 0.00 92 990.0
20260906031505 26 130 0.0 0.0 0.00 0.00 0.00 92 990.0
20260906030004 26 130 0.0 0.0 0.00 0.00 0.00 91 989.8
20260906024501 26 130 0.0 1.6 0.00 0.00 0.00 90 989.8
20260906023001 27 131 0.0 0.0 0.00 0.00 0.00 89 989.5
20260906021503 27 130 0.0 0.0 0.00 0.00 0.00 87 989.2
20260906020004 27 130 0.0 0.0 0.00 0.00 0.00 86 989.0
20260906014501 28 131 0.0 0.0 0.00 0.00 0.00 85 989.2
20260906013001 28 130 0.0 0.0 0.00 0.00 0.00 84 989.1
20260906011501 28 130 0.0 0.0 0.00 0.00 0.00 82 989.0
20260906010003 29 130 0.0 0.0 0.00 0.00 0.00 80 988.7
20260906004501 30 131 0.0 0.0 0.00 0.00 0.00 78 988.6
20260906003001 30 131 0.0 0.0 0.00 0.00 0.00 73 988.5
20260906001500 31 131 0.0 0.0 0.00 0.00 0.00 71 988.7
20260906000004 32 131 0.0 0.0 0.00 0.00 0.00 70 988.9
20260905234501 32 131 0.0 0.0 0.00 0.00 0.00 67 988.7
20260905233006 33 130 0.0 0.0 0.00 0.00 0.00 64 989.0
20260905231501 34 130 0.0 0.0 0.00 0.00 0.00 61 988.7
20260905230003 35 131 0.0 1.6 0.00 0.00 0.00 60 988.7
20260905224501 35 79 1.6 8.0 0.00 0.00 0.00 56 988.7
20260905223001 36 11 1.6 9.7 0.00 0.00 0.00 54 988.9
20260905221501 36 80 4.8 12.9 0.00 0.00 0.00 53 988.9
20260905220003 36 292 1.6 9.7 0.00 0.00 0.00 52 988.9
20260905214501 36 62 1.6 8.0 0.00 0.00 0.00 53 988.9
20260905213001 36 359 4.8 8.0 0.00 0.00 0.00 55 989.0
20260905211503 37 224 0.0 6.4 0.00 0.00 0.00 51 989.0
20260905210003 37 231 3.2 6.4 0.00 0.00 0.00 51 989.1
20260905204504 36 27 3.2 8.0 0.00 0.00 0.00 54 989.3
20260905203001 37 300 4.8 17.7 0.00 0.00 0.00 51 989.5
20260905201501 36 305 0.0 0.0 0.00 0.00 0.00 53 989.6
20260905200013 36 8 0.0 0.0 0.00 0.00 0.00 56 989.9
20260905194501 36 8 0.0 0.0 0.00 0.00 0.00 56 990.3
20260905193002 36 55 0.0 0.0 0.00 0.00 0.00 55 990.5
20260905191501 36 325 0.0 0.0 0.00 0.00 0.00 54 990.7
20260905190104 36 73 0.0 0.0 0.00 0.00 0.00 56 990.9
20260905190004 36 143 0.0 0.0 0.00 0.00 0.00 57 990.9
20260905184501 35 68 0.0 0.0 0.00 0.00 0.00 58 991.0
20260905183001 36 199 0.0 0.0 0.00 0.00 0.00 56 991.2
20260905181500 36 51 0.0 0.0 0.00 0.00 0.00 55 991.3
20260905180006 35 95 0.0 0.0 0.00 0.00 0.00 55 991.3
20260905174501 35 4 0.0 0.0 0.00 0.00 0.00 54 991.5
20260905173001 35 18 0.0 0.0 0.00 0.00 0.00 59 991.6
20260905171501 35 307 0.0 0.0 0.00 0.00 0.00 58 991.7
20260905170001 35 235 0.0 0.0 0.00 0.00 0.00 60 991.7
20260905164607 34 342 0.0 0.0 0.00 0.00 0.00 59 992.1
20260905163112 34 85 0.0 0.0 0.00 0.00 0.00 61 992.4
20260905161614 33 111 0.0 0.0 0.00 0.00 0.00 62 992.4
20260905160100 33 64 0.0 0.0 0.00 0.00 0.00 64 992.6
20260905160003 33 44 0.0 0.0 0.00 0.00 0.00 64 992.6
20260905154611 33 18 0.0 0.0 0.00 0.00 0.00 66 992.6
20260905153100 32 317 0.0 0.0 0.00 0.00 0.00 70 992.9
20260905151600 32 241 0.0 0.0 0.00 0.00 0.00 73 992.7
20260905150104 31 63 0.0 0.0 0.00 0.00 0.00 74 992.6
20260905150002 31 71 0.0 0.0 0.00 0.00 0.00 74 992.6
20260905144600 31 12 0.0 0.0 0.00 0.00 0.00 75 992.8
20260905143104 31 31 0.0 0.0 0.00 0.00 0.00 73 992.7
20260905141605 30 53 0.0 0.0 0.00 0.00 0.00 76 992.7
20260905140100 29 66 0.0 0.0 0.00 0.00 0.00 79 992.8
20260905140002 29 77 0.0 0.0 0.00 0.00 0.00 80 992.8
20260905134600 29 95 0.0 0.0 0.00 0.00 0.00 81 992.6
20260905133105 27 22 0.0 0.0 0.00 0.00 0.00 88 992.7
20260905131601 26 63 0.0 0.0 0.00 0.00 0.00 91 992.7
20260905130059 25 63 0.0 0.0 0.00 0.00 0.00 95 992.8
20260905130002 25 63 0.0 0.0 0.00 0.00 0.00 95 992.8
20260905124600 23 63 0.0 0.0 0.00 0.00 0.00 97 993.0
20260905123109 22 63 0.0 0.0 0.00 0.00 0.00 100 993.0
20260905121559 22 63 0.0 0.0 0.00 0.00 0.00 100 992.8
20260905120101 21 63 0.0 0.0 0.00 0.00 0.00 100 992.6
20260905120003 21 63 0.0 0.0 0.00 0.00 0.00 100 992.6